LPP3001 LEAM-CYYT

Flight info

Callsign LPP3001
Flight time 5h 34m
Altitude 38000
Route KUNEN L112 MGA M744 LASIB DCT NATID DCT VEDEL DCT DETOX/M080F380 DCT 42N020W/M080F400 45N030W 47N040W 48N050W DCT NICSO
Aircraft E190/M-SDE3GILORVW/S

Departure

Time 2026-04-23 15:34
Airport Almería Airport (LEAM)

Arrival

Time 2026-04-23 21:08
Airport St. John's International Airport (CYYT)
Time Latitude Longitude Altitude Speed Heading
2026-04-23 15:15 36.84544 -2.37848 81 ft 0 kts 105°
2026-04-23 15:27 36.84544 -2.37847 81 ft 1 kts 105°
2026-04-23 15:27 36.84534 -2.37831 79 ft 4 kts 160°
2026-04-23 15:28 36.84490 -2.37856 75 ft 9 kts 216°
2026-04-23 15:28 36.84423 -2.37905 68 ft 13 kts 202°
2026-04-23 15:28 36.84365 -2.37918 61 ft 6 kts 205°
2026-04-23 15:28 36.84330 -2.37977 58 ft 11 kts 250°
2026-04-23 15:29 36.84308 -2.38064 55 ft 10 kts 253°
2026-04-23 15:29 36.84286 -2.38156 54 ft 11 kts 254°
2026-04-23 15:29 36.84260 -2.38258 52 ft 13 kts 252°
2026-04-23 15:29 36.84233 -2.38367 52 ft 13 kts 253°
2026-04-23 15:30 36.84207 -2.38476 51 ft 13 kts 253°
2026-04-23 15:30 36.84177 -2.38597 50 ft 15 kts 253°
2026-04-23 15:30 36.84153 -2.38699 49 ft 11 kts 254°
2026-04-23 15:30 36.84142 -2.38739 49 ft 0 kts 233°
2026-04-23 15:32 36.84138 -2.38745 49 ft 0 kts 230°
2026-04-23 15:32 36.84137 -2.38747 49 ft 2 kts 230°
2026-04-23 15:32 36.84094 -2.38782 47 ft 11 kts 194°
2026-04-23 15:33 36.84022 -2.38749 44 ft 12 kts 123°
2026-04-23 15:33 36.84007 -2.38642 44 ft 14 kts 87°
2026-04-23 15:33 36.84074 -2.38306 46 ft 69 kts 73°
2026-04-23 15:33 36.84269 -2.37508 54 ft 120 kts 73°
2026-04-23 15:34 36.84563 -2.36373 145 ft 150 kts 72°
2026-04-23 15:34 36.84804 -2.35079 584 ft 157 kts 78°
2026-04-23 15:34 36.85055 -2.33685 920 ft 174 kts 75°
2026-04-23 15:34 36.85451 -2.32310 1680 ft 167 kts 67°
2026-04-23 15:35 36.85842 -2.30918 2178 ft 180 kts 71°
2026-04-23 15:35 36.86240 -2.29371 2663 ft 195 kts 71°
2026-04-23 15:35 36.86664 -2.27691 3124 ft 213 kts 72°
2026-04-23 15:35 36.87111 -2.25866 3618 ft 231 kts 77°
2026-04-23 15:36 36.86945 -2.23859 4261 ft 244 kts 116°
2026-04-23 15:36 36.85738 -2.22382 5037 ft 253 kts 155°
2026-04-23 15:36 36.84079 -2.21776 5930 ft 251 kts 164°
2026-04-23 15:36 36.82407 -2.21209 6804 ft 248 kts 164°
2026-04-23 15:37 36.80765 -2.20620 7580 ft 248 kts 164°
2026-04-23 15:37 36.79153 -2.20026 8230 ft 243 kts 165°
2026-04-23 15:37 36.78062 -2.19619 8581 ft 249 kts 166°
2026-04-23 15:37 36.75813 -2.19820 9345 ft 253 kts 211°
2026-04-23 15:38 36.74635 -2.21410 9980 ft 259 kts 245°
2026-04-23 15:38 36.74067 -2.23549 10685 ft 262 kts 250°
2026-04-23 15:38 36.73535 -2.25714 11329 ft 264 kts 250°
2026-04-23 15:38 36.72991 -2.27922 11980 ft 268 kts 249°
2026-04-23 15:39 36.72448 -2.30118 12588 ft 271 kts 249°
2026-04-23 15:39 36.71891 -2.32372 13209 ft 273 kts 249°
2026-04-23 15:39 36.71565 -2.34697 13827 ft 283 kts 272°
2026-04-23 15:39 36.72023 -2.37182 13962 ft 310 kts 283°
2026-04-23 15:40 36.72675 -2.39857 14021 ft 332 kts 283°
2026-04-23 15:40 36.73354 -2.42669 14355 ft 345 kts 283°
2026-04-23 15:40 36.74048 -2.45557 14982 ft 348 kts 283°
2026-04-23 15:40 36.74731 -2.48413 15706 ft 348 kts 283°
2026-04-23 15:41 36.75421 -2.51305 16403 ft 348 kts 283°
2026-04-23 15:41 36.76109 -2.54193 17058 ft 350 kts 283°
2026-04-23 15:41 36.76797 -2.57087 17624 ft 353 kts 283°
2026-04-23 15:41 36.77493 -2.60016 18191 ft 357 kts 283°
2026-04-23 15:42 36.78195 -2.62974 18758 ft 360 kts 283°
2026-04-23 15:42 36.78910 -2.65987 19322 ft 363 kts 282°
2026-04-23 15:42 36.79627 -2.69018 19908 ft 366 kts 282°
2026-04-23 15:42 36.80350 -2.72075 20446 ft 369 kts 282°
2026-04-23 15:43 36.81074 -2.75143 20990 ft 372 kts 282°
2026-04-23 15:43 36.81805 -2.78245 21544 ft 375 kts 282°
2026-04-23 15:43 36.82540 -2.81363 22072 ft 378 kts 283°
2026-04-23 15:43 36.83112 -2.84539 22557 ft 376 kts 269°
2026-04-23 15:44 36.83138 -2.87782 23074 ft 377 kts 266°
2026-04-23 15:44 36.83116 -2.91047 23587 ft 379 kts 266°
2026-04-23 15:44 36.83091 -2.94335 24086 ft 382 kts 266°
2026-04-23 15:44 36.83063 -2.97651 24610 ft 384 kts 266°
2026-04-23 15:45 36.83033 -3.00982 25092 ft 387 kts 266°
2026-04-23 15:45 36.83002 -3.04343 25575 ft 389 kts 266°
2026-04-23 15:45 36.82971 -3.07720 26064 ft 391 kts 266°
2026-04-23 15:45 36.82938 -3.11117 26552 ft 392 kts 266°
2026-04-23 15:46 36.82903 -3.14522 27018 ft 394 kts 266°
2026-04-23 15:46 36.82868 -3.17903 27453 ft 397 kts 266°
2026-04-23 15:46 36.82832 -3.21372 27899 ft 399 kts 266°
2026-04-23 15:46 36.82794 -3.24796 28335 ft 401 kts 266°
2026-04-23 15:47 36.82755 -3.28282 28778 ft 402 kts 266°
2026-04-23 15:47 36.82715 -3.31778 29195 ft 404 kts 266°
2026-04-23 15:47 36.82674 -3.35266 29604 ft 406 kts 266°
2026-04-23 15:47 36.82632 -3.38772 29997 ft 409 kts 266°
2026-04-23 15:48 36.82584 -3.42345 30381 ft 411 kts 266°
2026-04-23 15:48 36.82542 -3.45898 30741 ft 413 kts 266°
2026-04-23 15:48 36.82496 -3.49484 31096 ft 415 kts 266°
2026-04-23 15:48 36.82449 -3.53071 31427 ft 418 kts 266°
2026-04-23 15:49 36.82400 -3.56687 31757 ft 420 kts 266°
2026-04-23 15:49 36.82349 -3.60309 32155 ft 421 kts 266°
2026-04-23 15:49 36.82298 -3.63942 32594 ft 420 kts 266°
2026-04-23 15:49 36.82245 -3.67633 33072 ft 419 kts 265°
2026-04-23 15:50 36.82191 -3.71271 33578 ft 416 kts 265°
2026-04-23 15:50 36.82140 -3.74865 34030 ft 415 kts 265°
2026-04-23 15:50 36.82108 -3.78453 34443 ft 414 kts 265°
2026-04-23 15:50 36.82075 -3.82046 34818 ft 413 kts 265°
2026-04-23 15:51 36.82041 -3.85597 35167 ft 412 kts 265°
2026-04-23 15:51 36.82006 -3.89154 35501 ft 411 kts 265°
2026-04-23 15:51 36.81970 -3.92698 35837 ft 410 kts 266°
2026-04-23 15:51 36.81936 -3.95957 36127 ft 410 kts 266°
2026-04-23 15:52 36.81897 -3.99536 36526 ft 409 kts 266°
2026-04-23 15:52 36.81858 -4.03048 36915 ft 409 kts 266°
2026-04-23 15:52 36.81832 -4.05404 37160 ft 409 kts 266°
2026-04-23 15:52 36.81777 -4.10120 37656 ft 408 kts 266°
2026-04-23 15:53 36.81736 -4.13625 37990 ft 404 kts 266°
2026-04-23 15:53 36.81662 -4.19528 38007 ft 413 kts 266°
2026-04-23 15:54 36.81552 -4.28002 38007 ft 427 kts 266°
2026-04-23 15:54 36.81740 -4.35496 38006 ft 439 kts 277°
2026-04-23 15:55 36.83710 -4.42701 38006 ft 445 kts 295°
2026-04-23 15:55 36.86723 -4.49425 37999 ft 445 kts 295°
2026-04-23 15:56 36.89651 -4.56289 38006 ft 446 kts 294°
2026-04-23 15:56 36.92057 -4.61968 38002 ft 448 kts 294°
2026-04-23 15:57 36.95449 -4.69996 38015 ft 447 kts 294°
2026-04-23 15:57 36.97852 -4.75694 38020 ft 446 kts 294°
2026-04-23 15:58 37.00739 -4.82557 38001 ft 447 kts 293°
2026-04-23 15:58 37.04108 -4.90581 38014 ft 447 kts 293°
2026-04-23 15:59 37.07078 -4.97373 38025 ft 448 kts 296°
2026-04-23 15:59 37.10173 -5.04120 38008 ft 448 kts 296°
2026-04-23 16:00 37.13286 -5.10937 38009 ft 447 kts 296°
2026-04-23 16:00 37.16370 -5.17705 37998 ft 449 kts 296°
2026-04-23 16:01 37.19462 -5.24506 37984 ft 451 kts 296°
2026-04-23 16:01 37.22044 -5.30194 37983 ft 450 kts 296°
2026-04-23 16:02 37.25642 -5.38141 37976 ft 451 kts 295°
2026-04-23 16:02 37.28713 -5.44937 37963 ft 450 kts 296°
2026-04-23 16:03 37.31788 -5.51757 37964 ft 451 kts 296°
2026-04-23 16:03 37.34365 -5.57481 37963 ft 450 kts 296°
2026-04-23 16:04 37.37949 -5.65463 37971 ft 450 kts 295°
2026-04-23 16:04 37.40523 -5.71207 37963 ft 451 kts 295°
2026-04-23 16:05 37.43599 -5.78062 37964 ft 451 kts 295°
2026-04-23 16:05 37.46685 -5.84883 37969 ft 452 kts 295°
2026-04-23 16:06 37.50288 -5.92864 37959 ft 450 kts 295°
2026-04-23 16:06 37.53381 -5.99732 37965 ft 451 kts 295°
2026-04-23 16:07 37.56466 -6.06599 37968 ft 453 kts 295°
2026-04-23 16:07 37.59564 -6.13509 37975 ft 452 kts 295°
2026-04-23 16:08 37.62649 -6.20405 37970 ft 451 kts 295°
2026-04-23 16:08 37.65722 -6.27287 37978 ft 453 kts 295°
2026-04-23 16:09 37.68800 -6.34202 37975 ft 453 kts 295°
2026-04-23 16:09 37.71864 -6.41101 37984 ft 453 kts 295°
2026-04-23 16:10 37.74430 -6.46890 37996 ft 453 kts 295°
2026-04-23 16:10 37.77996 -6.54954 37996 ft 453 kts 295°
2026-04-23 16:11 37.80553 -6.60749 37991 ft 453 kts 295°
2026-04-23 16:11 37.84118 -6.68845 37991 ft 454 kts 294°
2026-04-23 16:12 37.86678 -6.74672 37987 ft 453 kts 294°
2026-04-23 16:12 37.90247 -6.82811 37989 ft 454 kts 295°
2026-04-23 16:13 37.93294 -6.89779 37989 ft 456 kts 295°
2026-04-23 16:13 37.97895 -7.00327 37992 ft 455 kts 295°
2026-04-23 16:14 38.00939 -7.07370 37993 ft 455 kts 291°
2026-04-23 16:14 38.02596 -7.13586 37996 ft 445 kts 276°
2026-04-23 16:15 38.03989 -7.22492 37986 ft 449 kts 284°
2026-04-23 16:15 38.06570 -7.29769 37980 ft 454 kts 291°
2026-04-23 16:16 38.09283 -7.36965 37978 ft 455 kts 291°
2026-04-23 16:16 38.12020 -7.44264 37966 ft 455 kts 291°
2026-04-23 16:17 38.14742 -7.51537 37967 ft 455 kts 291°
2026-04-23 16:17 38.17442 -7.58773 37969 ft 454 kts 291°
2026-04-23 16:18 38.20137 -7.66009 37980 ft 454 kts 290°
2026-04-23 16:18 38.22838 -7.73280 37983 ft 454 kts 290°
2026-04-23 16:19 38.25536 -7.80563 37982 ft 455 kts 290°
2026-04-23 16:19 38.28219 -7.87819 37983 ft 456 kts 290°
2026-04-23 16:20 38.30910 -7.95117 37974 ft 457 kts 290°
2026-04-23 16:20 38.33133 -8.01158 37974 ft 456 kts 290°
2026-04-23 16:21 38.35831 -8.08504 37977 ft 455 kts 290°
2026-04-23 16:21 38.38948 -8.17019 37970 ft 456 kts 290°
2026-04-23 16:22 38.41607 -8.24298 37979 ft 456 kts 290°
2026-04-23 16:22 38.44283 -8.31644 37976 ft 457 kts 290°
2026-04-23 16:23 38.46944 -8.38966 37981 ft 458 kts 290°
2026-04-23 16:23 38.49597 -8.46283 37978 ft 457 kts 290°
2026-04-23 16:24 38.52254 -8.53628 37985 ft 457 kts 290°
2026-04-23 16:24 38.54469 -8.59766 37981 ft 457 kts 290°
2026-04-23 16:25 38.57133 -8.67169 37982 ft 457 kts 289°
2026-04-23 16:25 38.60223 -8.75773 37986 ft 457 kts 289°
2026-04-23 16:26 38.62849 -8.83109 37986 ft 457 kts 289°
2026-04-23 16:26 38.65047 -8.89261 37987 ft 458 kts 289°
2026-04-23 16:27 38.68121 -8.97885 37989 ft 459 kts 289°
2026-04-23 16:27 38.70776 -9.05355 37988 ft 460 kts 289°
2026-04-23 16:28 38.73410 -9.12784 37993 ft 460 kts 289°
2026-04-23 16:28 38.76055 -9.20263 37999 ft 460 kts 289°
2026-04-23 16:29 38.78685 -9.27722 38004 ft 461 kts 289°
2026-04-23 16:29 38.80866 -9.33918 38002 ft 460 kts 289°
2026-04-23 16:30 38.83936 -9.42665 38006 ft 461 kts 289°
2026-04-23 16:30 38.86550 -9.50134 38005 ft 461 kts 289°
2026-04-23 16:31 38.89111 -9.57605 38006 ft 460 kts 287°
2026-04-23 16:31 38.91598 -9.65165 37996 ft 461 kts 287°
2026-04-23 16:32 38.93678 -9.71491 38001 ft 460 kts 287°
2026-04-23 16:32 38.96561 -9.80281 38006 ft 461 kts 287°
2026-04-23 16:33 38.99033 -9.87841 38010 ft 460 kts 287°
2026-04-23 16:33 39.01516 -9.95453 38012 ft 461 kts 287°
2026-04-23 16:34 39.03970 -10.03000 38007 ft 463 kts 287°
2026-04-23 16:34 39.06450 -10.10644 38000 ft 463 kts 287°
2026-04-23 16:35 39.08904 -10.18229 37997 ft 462 kts 287°
2026-04-23 16:35 39.11368 -10.25868 37976 ft 462 kts 287°
2026-04-23 16:36 39.13818 -10.33481 37978 ft 461 kts 287°
2026-04-23 16:36 39.16267 -10.41116 37983 ft 462 kts 287°
2026-04-23 16:37 39.18712 -10.48755 37980 ft 462 kts 287°
2026-04-23 16:37 39.21146 -10.56381 37979 ft 461 kts 287°
2026-04-23 16:38 39.23579 -10.64029 37982 ft 463 kts 287°
2026-04-23 16:38 39.25610 -10.70427 37981 ft 462 kts 286°
2026-04-23 16:39 39.28033 -10.78079 37982 ft 462 kts 285°
2026-04-23 16:39 39.30841 -10.86970 37986 ft 463 kts 285°
2026-04-23 16:40 39.33254 -10.94636 37989 ft 462 kts 286°
2026-04-23 16:40 39.35662 -11.02308 37983 ft 462 kts 285°
2026-04-23 16:41 39.38073 -11.10011 37999 ft 462 kts 286°
2026-04-23 16:41 39.40461 -11.17661 37995 ft 461 kts 286°
2026-04-23 16:42 39.42845 -11.25321 38000 ft 461 kts 286°
2026-04-23 16:42 39.45236 -11.33023 37991 ft 461 kts 286°
2026-04-23 16:43 39.47218 -11.39424 37994 ft 460 kts 286°
2026-04-23 16:43 39.49981 -11.48377 37989 ft 462 kts 286°
2026-04-23 16:44 39.52351 -11.56073 37983 ft 462 kts 286°
2026-04-23 16:44 39.54713 -11.63773 37974 ft 461 kts 286°
2026-04-23 16:45 39.57066 -11.71458 37982 ft 461 kts 285°
2026-04-23 16:45 39.59422 -11.79177 37976 ft 460 kts 285°
2026-04-23 16:46 39.61754 -11.86842 37975 ft 461 kts 285°
2026-04-23 16:46 39.64106 -11.94591 37979 ft 459 kts 285°
2026-04-23 16:47 39.66421 -12.02245 37970 ft 460 kts 285°
2026-04-23 16:47 39.68758 -12.09987 37977 ft 460 kts 285°
2026-04-23 16:48 39.71072 -12.17679 37964 ft 461 kts 285°
2026-04-23 16:48 39.72996 -12.24091 37965 ft 460 kts 285°
2026-04-23 16:49 39.75309 -12.31820 37972 ft 460 kts 285°
2026-04-23 16:49 39.77995 -12.40822 37969 ft 460 kts 285°
2026-04-23 16:50 39.79922 -12.47301 37963 ft 460 kts 285°
2026-04-23 16:50 39.82211 -12.55013 37966 ft 459 kts 285°
2026-04-23 16:51 39.84874 -12.64019 37964 ft 458 kts 285°
2026-04-23 16:51 39.87290 -12.70212 37981 ft 468 kts 299°
2026-04-23 16:52 39.90928 -12.77195 37977 ft 467 kts 298°
2026-04-23 16:52 39.95087 -12.85391 37970 ft 467 kts 298°
2026-04-23 16:53 39.98665 -12.92472 37971 ft 467 kts 298°
2026-04-23 16:53 40.02207 -12.99498 37955 ft 468 kts 298°
2026-04-23 16:54 40.05778 -13.06596 37959 ft 468 kts 298°
2026-04-23 16:54 40.09320 -13.13653 37959 ft 466 kts 298°
2026-04-23 16:55 40.12851 -13.20702 37931 ft 466 kts 298°
2026-04-23 16:55 40.15801 -13.26606 37952 ft 468 kts 298°
2026-04-23 16:56 40.19345 -13.33713 37934 ft 466 kts 298°
2026-04-23 16:56 40.23459 -13.41982 37945 ft 466 kts 298°
2026-04-23 16:57 40.26984 -13.49083 37931 ft 466 kts 298°
2026-04-23 16:57 40.30482 -13.56148 37933 ft 466 kts 298°
2026-04-23 16:58 40.33999 -13.63268 37934 ft 465 kts 298°
2026-04-23 16:58 40.36920 -13.69192 37926 ft 465 kts 297°
2026-04-23 16:59 40.40990 -13.77468 37921 ft 465 kts 297°
2026-04-23 16:59 40.43895 -13.83386 37945 ft 464 kts 297°
2026-04-23 17:00 40.47958 -13.91685 37945 ft 465 kts 297°
2026-04-23 17:00 40.50856 -13.97618 37936 ft 464 kts 297°
2026-04-23 17:01 40.54324 -14.04731 37927 ft 463 kts 297°
2026-04-23 17:01 40.57774 -14.11824 37930 ft 462 kts 297°
2026-04-23 17:02 40.61237 -14.18960 37930 ft 461 kts 297°
2026-04-23 17:02 40.65247 -14.27245 37927 ft 463 kts 297°
2026-04-23 17:03 40.68141 -14.33237 37925 ft 463 kts 297°
2026-04-23 17:03 40.72133 -14.41522 37929 ft 463 kts 297°
2026-04-23 17:04 40.75574 -14.48682 37922 ft 462 kts 297°
2026-04-23 17:04 40.78989 -14.55804 37910 ft 462 kts 297°
2026-04-23 17:05 40.81847 -14.61777 37914 ft 462 kts 297°
2026-04-23 17:05 40.85843 -14.70146 37912 ft 462 kts 296°
2026-04-23 17:06 40.88661 -14.76064 37913 ft 461 kts 297°
2026-04-23 17:06 40.92058 -14.83213 37906 ft 461 kts 297°
2026-04-23 17:07 40.95457 -14.90380 37913 ft 460 kts 297°
2026-04-23 17:07 40.99336 -14.98774 37897 ft 457 kts 291°
2026-04-23 17:08 41.01464 -15.06574 37903 ft 450 kts 282°
2026-04-23 17:08 41.03243 -15.14455 37887 ft 450 kts 282°
2026-04-23 17:09 41.04713 -15.21036 37899 ft 449 kts 282°
2026-04-23 17:09 41.06482 -15.28989 37895 ft 450 kts 282°
2026-04-23 17:10 41.08229 -15.36869 37902 ft 448 kts 282°
2026-04-23 17:10 41.09973 -15.44769 37898 ft 449 kts 282°
2026-04-23 17:11 41.11717 -15.52693 37879 ft 449 kts 282°
2026-04-23 17:11 41.13744 -15.61943 37878 ft 450 kts 282°
2026-04-23 17:12 41.15480 -15.69897 37859 ft 449 kts 281°
2026-04-23 17:12 41.16911 -15.76472 37866 ft 448 kts 281°
2026-04-23 17:13 41.18624 -15.84372 37866 ft 448 kts 281°
2026-04-23 17:13 41.20625 -15.93639 37874 ft 448 kts 281°
2026-04-23 17:14 41.22333 -16.01580 37875 ft 448 kts 281°
2026-04-23 17:14 41.24027 -16.09486 37866 ft 449 kts 282°
2026-04-23 17:15 41.25728 -16.17451 37872 ft 449 kts 282°
2026-04-23 17:15 41.27412 -16.25369 37862 ft 449 kts 282°
2026-04-23 17:16 41.28822 -16.32022 37865 ft 448 kts 282°
2026-04-23 17:16 41.30493 -16.39930 37866 ft 448 kts 282°
2026-04-23 17:17 41.32165 -16.47877 37866 ft 448 kts 282°
2026-04-23 17:17 41.34107 -16.57142 37848 ft 445 kts 282°
2026-04-23 17:18 41.36312 -16.67709 37852 ft 445 kts 281°
2026-04-23 17:19 41.38227 -16.76938 37837 ft 446 kts 282°
2026-04-23 17:19 41.39601 -16.83578 37849 ft 446 kts 282°
2026-04-23 17:20 41.41227 -16.91470 37854 ft 446 kts 282°
2026-04-23 17:21 41.44489 -17.07388 37851 ft 445 kts 282°
2026-04-23 17:21 41.47180 -17.20613 37840 ft 445 kts 282°
2026-04-23 17:22 41.49310 -17.31145 37837 ft 445 kts 282°
2026-04-23 17:23 41.51967 -17.44356 37839 ft 443 kts 282°
2026-04-23 17:24 41.54085 -17.54952 37840 ft 445 kts 282°
2026-04-23 17:24 41.56443 -17.66814 37830 ft 443 kts 282°
2026-04-23 17:25 41.59056 -17.80039 37824 ft 444 kts 282°
2026-04-23 17:26 41.62166 -17.95895 37829 ft 443 kts 282°
2026-04-23 17:27 41.64227 -18.06469 37827 ft 442 kts 282°
2026-04-23 17:27 41.66020 -18.15721 37822 ft 441 kts 282°
2026-04-23 17:28 41.67296 -18.22330 37817 ft 441 kts 282°
2026-04-23 17:28 41.68826 -18.30282 37820 ft 441 kts 282°
2026-04-23 17:29 41.70593 -18.39506 37815 ft 442 kts 282°
2026-04-23 17:30 41.72609 -18.50089 37813 ft 440 kts 282°
2026-04-23 17:30 41.74858 -18.61962 37811 ft 439 kts 282°
2026-04-23 17:31 41.76596 -18.71183 37815 ft 439 kts 281°
2026-04-23 17:31 41.78068 -18.79033 37813 ft 439 kts 281°
2026-04-23 17:32 41.79545 -18.86938 37809 ft 440 kts 282°
2026-04-23 17:32 41.80777 -18.93559 37807 ft 441 kts 282°
2026-04-23 17:33 41.82249 -19.01497 37808 ft 440 kts 282°
2026-04-23 17:33 41.83949 -19.10705 37806 ft 439 kts 282°
2026-04-23 17:34 41.85159 -19.17292 37802 ft 438 kts 282°
2026-04-23 17:35 41.87328 -19.29151 37798 ft 437 kts 282°
2026-04-23 17:35 41.89472 -19.40946 37788 ft 436 kts 282°
2026-04-23 17:36 41.90899 -19.48839 37775 ft 435 kts 282°
2026-04-23 17:36 41.92317 -19.56714 37775 ft 436 kts 282°
2026-04-23 17:37 41.93729 -19.64591 37768 ft 435 kts 282°
2026-04-23 17:38 41.96070 -19.77725 37767 ft 434 kts 281°
2026-04-23 17:38 41.97457 -19.85549 37766 ft 432 kts 281°
2026-04-23 17:39 41.98608 -19.92070 37762 ft 432 kts 281°
2026-04-23 17:39 42.00030 -19.99872 37769 ft 432 kts 286°
2026-04-23 17:40 42.02565 -20.07216 37769 ft 436 kts 294°
2026-04-23 17:40 42.05222 -20.14528 37763 ft 436 kts 293°
2026-04-23 17:41 42.07835 -20.21822 37751 ft 436 kts 294°
2026-04-23 17:41 42.11766 -20.32836 37740 ft 434 kts 293°
2026-04-23 17:42 42.16101 -20.45041 37729 ft 435 kts 294°
2026-04-23 17:43 42.18250 -20.51108 37742 ft 434 kts 294°
2026-04-23 17:43 42.20843 -20.58445 37740 ft 434 kts 294°
2026-04-23 17:44 42.23420 -20.65758 37724 ft 433 kts 293°
2026-04-23 17:44 42.27696 -20.77936 37737 ft 432 kts 293°
2026-04-23 17:45 42.31110 -20.87700 37746 ft 432 kts 293°
2026-04-23 17:46 42.34939 -20.98687 37720 ft 432 kts 293°
2026-04-23 17:46 42.37478 -21.05996 37731 ft 431 kts 294°
2026-04-23 17:47 42.40424 -21.14501 37727 ft 429 kts 294°
2026-04-23 17:48 42.43794 -21.24266 37713 ft 430 kts 293°
2026-04-23 17:48 42.46646 -21.32555 37719 ft 429 kts 294°
2026-04-23 17:49 42.48731 -21.38631 37711 ft 429 kts 293°
2026-04-23 17:49 42.51243 -21.45970 37710 ft 428 kts 294°
2026-04-23 17:50 42.53721 -21.53228 37698 ft 428 kts 293°
2026-04-23 17:50 42.57848 -21.65357 37702 ft 426 kts 293°
2026-04-23 17:51 42.60315 -21.72634 37700 ft 425 kts 293°
2026-04-23 17:52 42.64006 -21.83558 37690 ft 425 kts 293°
2026-04-23 17:52 42.67284 -21.93296 37691 ft 424 kts 293°
2026-04-23 17:53 42.71347 -22.05417 37683 ft 425 kts 293°
2026-04-23 17:54 42.73378 -22.11494 37673 ft 424 kts 293°
2026-04-23 17:54 42.77009 -22.22395 37678 ft 422 kts 293°
2026-04-23 17:55 42.81022 -22.34493 37682 ft 422 kts 293°
2026-04-23 17:56 42.83009 -22.40503 37678 ft 423 kts 293°
2026-04-23 17:56 42.86612 -22.51437 37672 ft 423 kts 293°
2026-04-23 17:57 42.89004 -22.58720 37670 ft 423 kts 293°
2026-04-23 17:58 42.92975 -22.70855 37662 ft 421 kts 292°
2026-04-23 17:58 42.94966 -22.76959 37664 ft 421 kts 292°
2026-04-23 17:59 42.97326 -22.84214 37658 ft 420 kts 292°
2026-04-23 17:59 42.99682 -22.91476 37655 ft 420 kts 292°
2026-04-23 18:00 43.02415 -22.99923 37661 ft 419 kts 292°
2026-04-23 18:00 43.04767 -23.07214 37662 ft 418 kts 292°
2026-04-23 18:01 43.06700 -23.13223 37656 ft 418 kts 292°
2026-04-23 18:01 43.09037 -23.20505 37648 ft 419 kts 292°
2026-04-23 18:02 43.11369 -23.27793 37655 ft 418 kts 292°
2026-04-23 18:02 43.13686 -23.35052 37648 ft 417 kts 292°
2026-04-23 18:03 43.15991 -23.42292 37661 ft 417 kts 292°
2026-04-23 18:03 43.18677 -23.50756 37657 ft 416 kts 292°
2026-04-23 18:04 43.20590 -23.56800 37651 ft 417 kts 292°
2026-04-23 18:04 43.22891 -23.64091 37649 ft 417 kts 292°
2026-04-23 18:05 43.25176 -23.71348 37642 ft 414 kts 292°
2026-04-23 18:05 43.27443 -23.78569 37647 ft 415 kts 291°
2026-04-23 18:06 43.30097 -23.87045 37639 ft 415 kts 292°
2026-04-23 18:06 43.31980 -23.93078 37645 ft 413 kts 292°
2026-04-23 18:07 43.34237 -24.00328 37630 ft 413 kts 292°
2026-04-23 18:07 43.36494 -24.07597 37631 ft 413 kts 292°
2026-04-23 18:08 43.38730 -24.14817 37618 ft 412 kts 292°
2026-04-23 18:08 43.40963 -24.22050 37611 ft 412 kts 292°
2026-04-23 18:09 43.43150 -24.29153 37606 ft 415 kts 292°
2026-04-23 18:09 43.45384 -24.36426 37605 ft 412 kts 292°
2026-04-23 18:10 43.47968 -24.44866 37605 ft 413 kts 292°
2026-04-23 18:10 43.49816 -24.50921 37597 ft 414 kts 292°
2026-04-23 18:11 43.52038 -24.58217 37597 ft 413 kts 292°
2026-04-23 18:11 43.54241 -24.65473 37585 ft 414 kts 291°
2026-04-23 18:12 43.56446 -24.72753 37602 ft 411 kts 291°
2026-04-23 18:12 43.58641 -24.80022 37592 ft 413 kts 291°
2026-04-23 18:13 43.61175 -24.88440 37586 ft 411 kts 291°
2026-04-23 18:13 43.62980 -24.94452 37577 ft 410 kts 291°
2026-04-23 18:14 43.65109 -25.01563 37581 ft 414 kts 291°
2026-04-23 18:14 43.67291 -25.08873 37587 ft 413 kts 291°
2026-04-23 18:15 43.69462 -25.16165 37573 ft 412 kts 291°
2026-04-23 18:15 43.71479 -25.22960 37578 ft 410 kts 291°
2026-04-23 18:16 43.73570 -25.30022 37574 ft 411 kts 291°
2026-04-23 18:16 43.75737 -25.37360 37582 ft 412 kts 291°
2026-04-23 18:17 43.79236 -25.49258 37559 ft 411 kts 291°
2026-04-23 18:17 43.81018 -25.55336 37576 ft 410 kts 291°
2026-04-23 18:18 43.83154 -25.62644 37565 ft 409 kts 291°
2026-04-23 18:18 43.85282 -25.69945 37567 ft 410 kts 290°
2026-04-23 18:19 43.87392 -25.77207 37576 ft 408 kts 291°
2026-04-23 18:19 43.89500 -25.84479 37555 ft 410 kts 290°
2026-04-23 18:20 43.91613 -25.91792 37551 ft 408 kts 290°
2026-04-23 18:20 43.93711 -25.99073 37552 ft 410 kts 290°
2026-04-23 18:21 43.95816 -26.06401 37561 ft 410 kts 291°
2026-04-23 18:21 43.97910 -26.13715 37543 ft 410 kts 291°
2026-04-23 18:22 43.99992 -26.21007 37547 ft 408 kts 291°
2026-04-23 18:22 44.02084 -26.28352 37542 ft 410 kts 291°
2026-04-23 18:23 44.05199 -26.39333 37547 ft 409 kts 290°
2026-04-23 18:24 44.08290 -26.50279 37554 ft 409 kts 290°
2026-04-23 18:25 44.11389 -26.61296 37547 ft 409 kts 290°
2026-04-23 18:25 44.13454 -26.68667 37549 ft 410 kts 290°
2026-04-23 18:26 44.15513 -26.76039 37557 ft 411 kts 290°
2026-04-23 18:26 44.17563 -26.83400 37540 ft 408 kts 290°
2026-04-23 18:27 44.19613 -26.90788 37534 ft 409 kts 290°
2026-04-23 18:27 44.21653 -26.98156 37523 ft 409 kts 290°
2026-04-23 18:28 44.23683 -27.05511 37525 ft 408 kts 290°
2026-04-23 18:28 44.25713 -27.12891 37524 ft 409 kts 290°
2026-04-23 18:29 44.27739 -27.20277 37544 ft 410 kts 290°
2026-04-23 18:29 44.29760 -27.27666 37536 ft 407 kts 290°
2026-04-23 18:30 44.31765 -27.35021 37533 ft 407 kts 290°
2026-04-23 18:30 44.33764 -27.42377 37526 ft 409 kts 290°
2026-04-23 18:31 44.35770 -27.49777 37533 ft 407 kts 290°
2026-04-23 18:31 44.37764 -27.57161 37524 ft 408 kts 290°
2026-04-23 18:32 44.39753 -27.64547 37522 ft 408 kts 290°
2026-04-23 18:32 44.41739 -27.71943 37533 ft 409 kts 290°
2026-04-23 18:33 44.43727 -27.79370 37531 ft 408 kts 289°
2026-04-23 18:33 44.45705 -27.86783 37521 ft 409 kts 289°
2026-04-23 18:34 44.47691 -27.94249 37533 ft 408 kts 290°
2026-04-23 18:34 44.49667 -28.01701 37527 ft 410 kts 289°
2026-04-23 18:35 44.51630 -28.09128 37524 ft 408 kts 289°
2026-04-23 18:35 44.53590 -28.16563 37521 ft 410 kts 290°
2026-04-23 18:36 44.55548 -28.24016 37505 ft 410 kts 289°
2026-04-23 18:36 44.57508 -28.31501 37510 ft 409 kts 289°
2026-04-23 18:37 44.59456 -28.38965 37500 ft 409 kts 289°
2026-04-23 18:37 44.61398 -28.46430 37504 ft 410 kts 290°
2026-04-23 18:38 44.63337 -28.53901 37490 ft 409 kts 290°
2026-04-23 18:38 44.65266 -28.61363 37489 ft 409 kts 290°
2026-04-23 18:39 44.67193 -28.68842 37507 ft 408 kts 289°
2026-04-23 18:39 44.69114 -28.76317 37519 ft 407 kts 289°
2026-04-23 18:40 44.71014 -28.83739 37504 ft 409 kts 289°
2026-04-23 18:40 44.72925 -28.91225 37513 ft 407 kts 289°
2026-04-23 18:41 44.74834 -28.98724 37516 ft 408 kts 289°
2026-04-23 18:41 44.76723 -29.06172 37505 ft 406 kts 289°
2026-04-23 18:42 44.78623 -29.13691 37505 ft 409 kts 289°
2026-04-23 18:42 44.80525 -29.21234 37501 ft 408 kts 289°
2026-04-23 18:43 44.82407 -29.28729 37478 ft 409 kts 289°
2026-04-23 18:43 44.84289 -29.36247 37494 ft 408 kts 289°
2026-04-23 18:44 44.86162 -29.43753 37486 ft 409 kts 289°
2026-04-23 18:44 44.88032 -29.51275 37487 ft 408 kts 289°
2026-04-23 18:45 44.89893 -29.58777 37494 ft 408 kts 289°
2026-04-23 18:45 44.91762 -29.66343 37477 ft 409 kts 289°
2026-04-23 18:46 44.93615 -29.73868 37494 ft 410 kts 289°
2026-04-23 18:46 44.95471 -29.81427 37504 ft 408 kts 289°
2026-04-23 18:47 44.97317 -29.88978 37498 ft 406 kts 289°
2026-04-23 18:47 44.99146 -29.96476 37496 ft 407 kts 289°
2026-04-23 18:48 45.01046 -30.03994 37499 ft 408 kts 289°
2026-04-23 18:48 45.02914 -30.11558 37506 ft 410 kts 289°
2026-04-23 18:49 45.04812 -30.19151 37480 ft 411 kts 289°
2026-04-23 18:49 45.06693 -30.26690 37506 ft 410 kts 290°
2026-04-23 18:50 45.08266 -30.33011 37480 ft 409 kts 290°
2026-04-23 18:50 45.10460 -30.41851 37503 ft 410 kts 289°
2026-04-23 18:51 45.12321 -30.49386 37487 ft 411 kts 290°
2026-04-23 18:51 45.14197 -30.57000 37502 ft 410 kts 290°
2026-04-23 18:52 45.16049 -30.64544 37473 ft 408 kts 289°
2026-04-23 18:52 45.17903 -30.72122 37505 ft 410 kts 289°
2026-04-23 18:53 45.19766 -30.79763 37507 ft 410 kts 289°
2026-04-23 18:53 45.21604 -30.87325 37490 ft 409 kts 289°
2026-04-23 18:54 45.23453 -30.94957 37491 ft 411 kts 289°
2026-04-23 18:54 45.25284 -31.02542 37511 ft 409 kts 289°
2026-04-23 18:55 45.27118 -31.10167 37498 ft 408 kts 289°
2026-04-23 18:55 45.28933 -31.17738 37501 ft 409 kts 289°
2026-04-23 18:56 45.30760 -31.25385 37496 ft 409 kts 289°
2026-04-23 18:56 45.32575 -31.33007 37497 ft 408 kts 289°
2026-04-23 18:57 45.34381 -31.40616 37505 ft 409 kts 289°
2026-04-23 18:57 45.36185 -31.48245 37502 ft 409 kts 289°
2026-04-23 18:58 45.37983 -31.55873 37484 ft 409 kts 289°
2026-04-23 18:58 45.39772 -31.63489 37510 ft 410 kts 289°
2026-04-23 18:59 45.41568 -31.71164 37520 ft 408 kts 289°
2026-04-23 18:59 45.43357 -31.78837 37515 ft 408 kts 289°
2026-04-23 19:00 45.45133 -31.86474 37517 ft 410 kts 289°
2026-04-23 19:00 45.46907 -31.94136 37507 ft 409 kts 289°
2026-04-23 19:01 45.48680 -32.01817 37515 ft 409 kts 289°
2026-04-23 19:01 45.50440 -32.09475 37499 ft 409 kts 289°
2026-04-23 19:02 45.52190 -32.17108 37501 ft 408 kts 289°
2026-04-23 19:02 45.53953 -32.24829 37518 ft 408 kts 289°
2026-04-23 19:03 45.55694 -32.32481 37518 ft 409 kts 289°
2026-04-23 19:03 45.57435 -32.40161 37507 ft 410 kts 289°
2026-04-23 19:04 45.59177 -32.47870 37498 ft 411 kts 289°
2026-04-23 19:04 45.60926 -32.55641 37529 ft 412 kts 289°
2026-04-23 19:05 45.62660 -32.63372 37547 ft 411 kts 289°
2026-04-23 19:05 45.64381 -32.71075 37523 ft 410 kts 288°
2026-04-23 19:06 45.66112 -32.78847 37530 ft 411 kts 288°
2026-04-23 19:06 45.67817 -32.86535 37523 ft 407 kts 288°
2026-04-23 19:07 45.69521 -32.94243 37526 ft 408 kts 288°
2026-04-23 19:07 45.71232 -33.02015 37546 ft 408 kts 289°
2026-04-23 19:08 45.72923 -33.09721 37542 ft 408 kts 289°
2026-04-23 19:08 45.74607 -33.17425 37525 ft 408 kts 288°
2026-04-23 19:09 45.76293 -33.25160 37529 ft 408 kts 289°
2026-04-23 19:09 45.77972 -33.32901 37520 ft 408 kts 289°
2026-04-23 19:10 45.79641 -33.40622 37513 ft 409 kts 288°
2026-04-23 19:10 45.81314 -33.48387 37544 ft 408 kts 289°
2026-04-23 19:11 45.82968 -33.56096 37532 ft 406 kts 288°
2026-04-23 19:11 45.84617 -33.63808 37523 ft 405 kts 288°
2026-04-23 19:12 45.86272 -33.71574 37554 ft 409 kts 288°
2026-04-23 19:12 45.87919 -33.79337 37566 ft 408 kts 287°
2026-04-23 19:13 45.89549 -33.87051 37552 ft 407 kts 287°
2026-04-23 19:13 45.91182 -33.94805 37544 ft 408 kts 287°
2026-04-23 19:14 45.92816 -34.02593 37555 ft 408 kts 288°
2026-04-23 19:14 45.94433 -34.10331 37539 ft 407 kts 287°
2026-04-23 19:15 45.96056 -34.18124 37558 ft 406 kts 288°
2026-04-23 19:15 45.97667 -34.25895 37576 ft 408 kts 288°
2026-04-23 19:16 45.99273 -34.33666 37552 ft 405 kts 287°
2026-04-23 19:16 46.00870 -34.41430 37564 ft 406 kts 288°
2026-04-23 19:17 46.03240 -34.53002 37566 ft 405 kts 288°
2026-04-23 19:17 46.04825 -34.60777 37567 ft 406 kts 288°
2026-04-23 19:18 46.06395 -34.68510 37593 ft 405 kts 287°
2026-04-23 19:18 46.07974 -34.76318 37563 ft 407 kts 287°
2026-04-23 19:19 46.10323 -34.87995 37573 ft 407 kts 287°
2026-04-23 19:20 46.12661 -34.99681 37584 ft 405 kts 287°
2026-04-23 19:20 46.14219 -35.07509 37578 ft 405 kts 287°
2026-04-23 19:21 46.16540 -35.19224 37608 ft 406 kts 287°
2026-04-23 19:22 46.18084 -35.27060 37588 ft 407 kts 287°
2026-04-23 19:22 46.20383 -35.38786 37592 ft 408 kts 287°
2026-04-23 19:23 46.21904 -35.46582 37609 ft 408 kts 287°
2026-04-23 19:24 46.24198 -35.58399 37607 ft 408 kts 287°
2026-04-23 19:24 46.26472 -35.70191 37607 ft 409 kts 286°
2026-04-23 19:25 46.29486 -35.85923 37614 ft 408 kts 286°
2026-04-23 19:26 46.31735 -35.97752 37617 ft 409 kts 286°
2026-04-23 19:27 46.35446 -36.17437 37620 ft 409 kts 286°
2026-04-23 19:28 46.38422 -36.33367 37625 ft 410 kts 286°
2026-04-23 19:29 46.40626 -36.45257 37631 ft 410 kts 286°
2026-04-23 19:30 46.42836 -36.57256 37631 ft 411 kts 286°
2026-04-23 19:31 46.45026 -36.69218 37645 ft 413 kts 285°
2026-04-23 19:31 46.46479 -36.77203 37642 ft 412 kts 285°
2026-04-23 19:32 46.47936 -36.85245 37657 ft 412 kts 285°
2026-04-23 19:32 46.49382 -36.93256 37649 ft 413 kts 285°
2026-04-23 19:33 46.50824 -37.01284 37662 ft 412 kts 285°
2026-04-23 19:33 46.52984 -37.13374 37654 ft 413 kts 285°
2026-04-23 19:34 46.54410 -37.21404 37646 ft 413 kts 285°
2026-04-23 19:35 46.56547 -37.33499 37650 ft 414 kts 285°
2026-04-23 19:35 46.57970 -37.41602 37670 ft 414 kts 285°
2026-04-23 19:36 46.59388 -37.49712 37661 ft 414 kts 285°
2026-04-23 19:36 46.60793 -37.57784 37659 ft 414 kts 285°
2026-04-23 19:37 46.62189 -37.65843 37672 ft 414 kts 284°
2026-04-23 19:37 46.63584 -37.73926 37675 ft 414 kts 284°
2026-04-23 19:38 46.64978 -37.82049 37675 ft 415 kts 284°
2026-04-23 19:38 46.66363 -37.90158 37674 ft 415 kts 284°
2026-04-23 19:39 46.67748 -37.98295 37671 ft 415 kts 284°
2026-04-23 19:39 46.69127 -38.06444 37661 ft 416 kts 284°
2026-04-23 19:40 46.70503 -38.14611 37671 ft 416 kts 284°
2026-04-23 19:40 46.71866 -38.22734 37672 ft 416 kts 284°
2026-04-23 19:41 46.73230 -38.30910 37667 ft 416 kts 284°
2026-04-23 19:41 46.74586 -38.39072 37672 ft 416 kts 284°
2026-04-23 19:42 46.75941 -38.47265 37688 ft 417 kts 284°
2026-04-23 19:42 46.77285 -38.55436 37696 ft 417 kts 284°
2026-04-23 19:43 46.78631 -38.63658 37688 ft 418 kts 284°
2026-04-23 19:43 46.79967 -38.71859 37698 ft 418 kts 283°
2026-04-23 19:44 46.81311 -38.80149 37693 ft 419 kts 283°
2026-04-23 19:44 46.82642 -38.88397 37693 ft 419 kts 283°
2026-04-23 19:45 46.83971 -38.96674 37699 ft 420 kts 283°
2026-04-23 19:45 46.85294 -39.04961 37696 ft 421 kts 283°
2026-04-23 19:46 46.86610 -39.13243 37689 ft 422 kts 283°
2026-04-23 19:46 46.87928 -39.21578 37689 ft 422 kts 283°
2026-04-23 19:47 46.89235 -39.29884 37689 ft 422 kts 283°
2026-04-23 19:47 46.90540 -39.38219 37697 ft 424 kts 283°
2026-04-23 19:48 46.91845 -39.46604 37705 ft 423 kts 283°
2026-04-23 19:48 46.93144 -39.54983 37703 ft 424 kts 283°
2026-04-23 19:49 46.94431 -39.63340 37698 ft 424 kts 283°
2026-04-23 19:49 46.95723 -39.71766 37700 ft 424 kts 282°
2026-04-23 19:50 46.97002 -39.80153 37699 ft 426 kts 282°
2026-04-23 19:50 46.98288 -39.88632 37703 ft 427 kts 282°
2026-04-23 19:51 46.99556 -39.97032 37697 ft 429 kts 282°
2026-04-23 19:51 47.00829 -40.05548 37707 ft 427 kts 281°
2026-04-23 19:52 47.02049 -40.14069 37702 ft 429 kts 281°
2026-04-23 19:52 47.03275 -40.22572 37703 ft 429 kts 281°
2026-04-23 19:53 47.04494 -40.31068 37711 ft 429 kts 281°
2026-04-23 19:53 47.05716 -40.39629 37719 ft 430 kts 281°
2026-04-23 19:54 47.06926 -40.48155 37727 ft 431 kts 281°
2026-04-23 19:54 47.08137 -40.56733 37726 ft 431 kts 281°
2026-04-23 19:55 47.09347 -40.65361 37724 ft 432 kts 280°
2026-04-23 19:55 47.10545 -40.73954 37722 ft 432 kts 280°
2026-04-23 19:56 47.11739 -40.82559 37720 ft 434 kts 280°
2026-04-23 19:56 47.12927 -40.91180 37721 ft 434 kts 280°
2026-04-23 19:57 47.14118 -40.99869 37720 ft 434 kts 280°
2026-04-23 19:57 47.15297 -41.08527 37719 ft 436 kts 280°
2026-04-23 19:58 47.16477 -41.17237 37725 ft 437 kts 280°
2026-04-23 19:58 47.17652 -41.25968 37725 ft 436 kts 280°
2026-04-23 19:59 47.18814 -41.34654 37726 ft 435 kts 279°
2026-04-23 19:59 47.19974 -41.43379 37730 ft 436 kts 280°
2026-04-23 20:00 47.21127 -41.52106 37732 ft 437 kts 280°
2026-04-23 20:00 47.22280 -41.60886 37734 ft 438 kts 280°
2026-04-23 20:01 47.23426 -41.69669 37738 ft 438 kts 279°
2026-04-23 20:01 47.24558 -41.78395 37740 ft 439 kts 279°
2026-04-23 20:02 47.25696 -41.87225 37739 ft 440 kts 279°
2026-04-23 20:02 47.26825 -41.96040 37738 ft 439 kts 279°
2026-04-23 20:03 47.27948 -42.04874 37738 ft 440 kts 279°
2026-04-23 20:03 47.29060 -42.13668 37739 ft 441 kts 279°
2026-04-23 20:04 47.30174 -42.22543 37740 ft 442 kts 279°
2026-04-23 20:04 47.31282 -42.31422 37734 ft 443 kts 279°
2026-04-23 20:05 47.32384 -42.40311 37739 ft 443 kts 279°
2026-04-23 20:05 47.33482 -42.49233 37736 ft 444 kts 279°
2026-04-23 20:06 47.34576 -42.58182 37740 ft 446 kts 279°
2026-04-23 20:06 47.35663 -42.67128 37739 ft 445 kts 278°
2026-04-23 20:07 47.36741 -42.76068 37734 ft 445 kts 278°
2026-04-23 20:07 47.37810 -42.84995 37744 ft 446 kts 278°
2026-04-23 20:08 47.38880 -42.93986 37740 ft 446 kts 278°
2026-04-23 20:08 47.39941 -43.02965 37753 ft 448 kts 278°
2026-04-23 20:09 47.41003 -43.12023 37741 ft 448 kts 278°
2026-04-23 20:09 47.42055 -43.21050 37750 ft 449 kts 278°
2026-04-23 20:10 47.43103 -43.30111 37743 ft 450 kts 278°
2026-04-23 20:10 47.44145 -43.39189 37740 ft 450 kts 278°
2026-04-23 20:11 47.45179 -43.48266 37744 ft 450 kts 278°
2026-04-23 20:11 47.46203 -43.57313 37739 ft 451 kts 277°
2026-04-23 20:12 47.47229 -43.66445 37745 ft 451 kts 277°
2026-04-23 20:12 47.48246 -43.75574 37736 ft 452 kts 277°
2026-04-23 20:13 47.49254 -43.84687 37749 ft 453 kts 277°
2026-04-23 20:13 47.50263 -43.93880 37746 ft 454 kts 277°
2026-04-23 20:14 47.51260 -44.03022 37732 ft 454 kts 277°
2026-04-23 20:14 47.52253 -44.12207 37736 ft 454 kts 277°
2026-04-23 20:15 47.53239 -44.21400 37738 ft 455 kts 277°
2026-04-23 20:15 47.54223 -44.30647 37734 ft 455 kts 277°
2026-04-23 20:16 47.55198 -44.39885 37729 ft 457 kts 277°
2026-04-23 20:16 47.56164 -44.49102 37725 ft 457 kts 277°
2026-04-23 20:17 47.57133 -44.58429 37732 ft 458 kts 277°
2026-04-23 20:17 47.58087 -44.67685 37720 ft 457 kts 276°
2026-04-23 20:18 47.59036 -44.76970 37724 ft 458 kts 276°
2026-04-23 20:18 47.59977 -44.86258 37730 ft 459 kts 276°
2026-04-23 20:19 47.60914 -44.95576 37733 ft 459 kts 276°
2026-04-23 20:19 47.61840 -45.04863 37738 ft 460 kts 276°
2026-04-23 20:20 47.62770 -45.14270 37734 ft 461 kts 276°
2026-04-23 20:20 47.63688 -45.23633 37730 ft 462 kts 276°
2026-04-23 20:21 47.64597 -45.32996 37740 ft 462 kts 276°
2026-04-23 20:21 47.65503 -45.42413 37734 ft 462 kts 276°
2026-04-23 20:22 47.66396 -45.51764 37729 ft 462 kts 276°
2026-04-23 20:22 47.67286 -45.61173 37742 ft 464 kts 276°
2026-04-23 20:23 47.68173 -45.70633 37740 ft 464 kts 275°
2026-04-23 20:23 47.69053 -45.80103 37743 ft 465 kts 275°
2026-04-23 20:24 47.69923 -45.89560 37742 ft 466 kts 275°
2026-04-23 20:24 47.70784 -45.99010 37738 ft 466 kts 275°
2026-04-23 20:25 47.71643 -46.08512 37747 ft 466 kts 275°
2026-04-23 20:25 47.72492 -46.18003 37740 ft 467 kts 275°
2026-04-23 20:26 47.73338 -46.27553 37748 ft 468 kts 275°
2026-04-23 20:26 47.74178 -46.37112 37743 ft 468 kts 275°
2026-04-23 20:27 47.75006 -46.46655 37748 ft 469 kts 275°
2026-04-23 20:27 47.75832 -46.56242 37747 ft 468 kts 275°
2026-04-23 20:28 47.76645 -46.65792 37747 ft 468 kts 274°
2026-04-23 20:28 47.77453 -46.75369 37740 ft 470 kts 274°
2026-04-23 20:29 47.78256 -46.84992 37739 ft 471 kts 274°
2026-04-23 20:29 47.79052 -46.94629 37747 ft 471 kts 274°
2026-04-23 20:30 47.79836 -47.04216 37743 ft 471 kts 274°
2026-04-23 20:30 47.81001 -47.18665 37751 ft 472 kts 274°
2026-04-23 20:31 47.81772 -47.28347 37766 ft 472 kts 274°
2026-04-23 20:31 47.82529 -47.37963 37762 ft 472 kts 274°
2026-04-23 20:32 47.83288 -47.47709 37770 ft 473 kts 274°
2026-04-23 20:32 47.84034 -47.57394 37771 ft 474 kts 274°
2026-04-23 20:33 47.84769 -47.67050 37786 ft 474 kts 274°
2026-04-23 20:33 47.85502 -47.76787 37772 ft 474 kts 274°
2026-04-23 20:34 47.86224 -47.86496 37772 ft 475 kts 274°
2026-04-23 20:34 47.86939 -47.96212 37797 ft 475 kts 274°
2026-04-23 20:35 47.87648 -48.05956 37790 ft 476 kts 274°
2026-04-23 20:35 47.88348 -48.15713 37786 ft 476 kts 274°
2026-04-23 20:36 47.89040 -48.25470 37774 ft 477 kts 274°
2026-04-23 20:36 47.89728 -48.35280 37781 ft 478 kts 274°
2026-04-23 20:37 47.90406 -48.45070 37765 ft 477 kts 274°
2026-04-23 20:37 47.91074 -48.54842 37784 ft 478 kts 274°
2026-04-23 20:38 47.91736 -48.64654 37781 ft 478 kts 274°
2026-04-23 20:38 47.92392 -48.74504 37764 ft 479 kts 273°
2026-04-23 20:39 47.93039 -48.84352 37783 ft 479 kts 273°
2026-04-23 20:39 47.93676 -48.94167 37791 ft 480 kts 273°
2026-04-23 20:40 47.94308 -49.04041 37797 ft 479 kts 273°
2026-04-23 20:40 47.94935 -49.13968 37797 ft 480 kts 273°
2026-04-23 20:41 47.95545 -49.23777 37794 ft 480 kts 273°
2026-04-23 20:41 47.96146 -49.33543 37782 ft 463 kts 273°
2026-04-23 20:42 47.96717 -49.43006 37803 ft 462 kts 272°
2026-04-23 20:42 47.97287 -49.52544 37810 ft 464 kts 272°
2026-04-23 20:43 47.97848 -49.62081 37809 ft 464 kts 272°
2026-04-23 20:43 47.98402 -49.71629 37789 ft 464 kts 272°
2026-04-23 20:44 47.98947 -49.81152 37850 ft 464 kts 272°
2026-04-23 20:44 47.99487 -49.90740 37799 ft 464 kts 272°
2026-04-23 20:45 47.99180 -50.00208 37802 ft 456 kts 254°
2026-04-23 20:45 47.97681 -50.09311 37806 ft 454 kts 248°
2026-04-23 20:46 47.95628 -50.18180 37800 ft 452 kts 246°
2026-04-23 20:46 47.93510 -50.26977 37794 ft 453 kts 246°
2026-04-23 20:47 47.91389 -50.35731 37783 ft 452 kts 246°
2026-04-23 20:47 47.89245 -50.44539 37787 ft 452 kts 246°
2026-04-23 20:48 47.87106 -50.53296 37782 ft 453 kts 246°
2026-04-23 20:48 47.84948 -50.62093 37787 ft 453 kts 247°
2026-04-23 20:49 47.82796 -50.70832 37781 ft 451 kts 246°
2026-04-23 20:49 47.80627 -50.79605 37784 ft 451 kts 246°
2026-04-23 20:50 47.78463 -50.88324 36944 ft 464 kts 246°
2026-04-23 20:50 47.77357 -50.92770 35601 ft 464 kts 245°
2026-04-23 20:50 47.76252 -50.97201 34313 ft 460 kts 245°
2026-04-23 20:51 47.75154 -51.01596 33085 ft 457 kts 244°
2026-04-23 20:51 47.74034 -51.06063 31860 ft 469 kts 244°
2026-04-23 20:51 47.72896 -51.10596 30508 ft 480 kts 244°
2026-04-23 20:51 47.71723 -51.15263 29115 ft 489 kts 244°
2026-04-23 20:52 47.70140 -51.21545 27205 ft 496 kts 244°
2026-04-23 20:52 47.69338 -51.24723 26241 ft 497 kts 244°
2026-04-23 20:52 47.68163 -51.29374 24736 ft 482 kts 244°
2026-04-23 20:52 47.67030 -51.33848 23408 ft 457 kts 244°
2026-04-23 20:53 47.65938 -51.38146 22113 ft 433 kts 245°
2026-04-23 20:53 47.64920 -51.42147 20846 ft 412 kts 245°
2026-04-23 20:53 47.63940 -51.45993 19635 ft 393 kts 245°
2026-04-23 20:53 47.63008 -51.49643 18444 ft 375 kts 246°
2026-04-23 20:54 47.62104 -51.53176 17261 ft 359 kts 246°
2026-04-23 20:54 47.61249 -51.56514 16155 ft 346 kts 246°
2026-04-23 20:54 47.60401 -51.59813 15170 ft 350 kts 247°
2026-04-23 20:54 47.59534 -51.63188 14079 ft 355 kts 247°
2026-04-23 20:55 47.58660 -51.66585 13045 ft 355 kts 247°
2026-04-23 20:55 47.57790 -51.69965 12554 ft 340 kts 247°
2026-04-23 20:55 47.56970 -51.73149 12170 ft 325 kts 247°
2026-04-23 20:55 47.56177 -51.76217 11809 ft 315 kts 247°
2026-04-23 20:56 47.55408 -51.79191 11471 ft 312 kts 247°
2026-04-23 20:56 47.54641 -51.82151 11127 ft 307 kts 247°
2026-04-23 20:56 47.53888 -51.85055 10792 ft 299 kts 248°
2026-04-23 20:56 47.53147 -51.87908 10465 ft 292 kts 248°
2026-04-23 20:57 47.52427 -51.90679 10143 ft 285 kts 248°
2026-04-23 20:57 47.51733 -51.93346 9837 ft 278 kts 248°
2026-04-23 20:57 47.51039 -51.96008 9530 ft 273 kts 248°
2026-04-23 20:57 47.50381 -51.98622 9231 ft 272 kts 255°
2026-04-23 20:58 47.50430 -52.01386 8938 ft 275 kts 286°
2026-04-23 20:58 47.51131 -52.04005 8627 ft 276 kts 290°
2026-04-23 20:58 47.51860 -52.06606 8306 ft 272 kts 291°
2026-04-23 20:58 47.52583 -52.09191 8002 ft 270 kts 291°
2026-04-23 20:59 47.53296 -52.11739 7702 ft 269 kts 291°
2026-04-23 20:59 47.54013 -52.14300 7402 ft 267 kts 291°
2026-04-23 20:59 47.54715 -52.16814 7200 ft 263 kts 291°
2026-04-23 20:59 47.55416 -52.19326 6997 ft 265 kts 291°
2026-04-23 21:00 47.56112 -52.21823 6723 ft 263 kts 291°
2026-04-23 21:00 47.56805 -52.24308 6437 ft 256 kts 291°
2026-04-23 21:00 47.57471 -52.26703 6154 ft 247 kts 291°
2026-04-23 21:00 47.58116 -52.29023 5882 ft 239 kts 291°
2026-04-23 21:01 47.58735 -52.31254 5618 ft 231 kts 291°
2026-04-23 21:01 47.59335 -52.33417 5369 ft 223 kts 291°
2026-04-23 21:01 47.59907 -52.35482 5125 ft 216 kts 292°
2026-04-23 21:01 47.60471 -52.37517 4890 ft 209 kts 292°
2026-04-23 21:02 47.61017 -52.39489 4664 ft 203 kts 292°
2026-04-23 21:02 47.61538 -52.41374 4507 ft 192 kts 292°
2026-04-23 21:02 47.62027 -52.43145 4303 ft 183 kts 292°
2026-04-23 21:02 47.62498 -52.44849 4087 ft 174 kts 292°
2026-04-23 21:03 47.62945 -52.46468 3876 ft 166 kts 292°
2026-04-23 21:03 47.63370 -52.48011 3680 ft 157 kts 292°
2026-04-23 21:03 47.63608 -52.49523 3495 ft 149 kts 270°
2026-04-23 21:03 47.63557 -52.51045 3347 ft 148 kts 269°
2026-04-23 21:04 47.63498 -52.52562 3199 ft 146 kts 269°
2026-04-23 21:04 47.63441 -52.54017 3119 ft 138 kts 269°
2026-04-23 21:04 47.63386 -52.55426 2958 ft 138 kts 269°
2026-04-23 21:04 47.63325 -52.56838 2783 ft 138 kts 269°
2026-04-23 21:05 47.63260 -52.58268 2594 ft 139 kts 269°
2026-04-23 21:05 47.63194 -52.59684 2398 ft 137 kts 269°
2026-04-23 21:05 47.63129 -52.61079 2207 ft 137 kts 269°
2026-04-23 21:05 47.63063 -52.62499 2012 ft 138 kts 269°
2026-04-23 21:06 47.62996 -52.63923 1815 ft 138 kts 269°
2026-04-23 21:06 47.62932 -52.65260 1614 ft 122 kts 268°
2026-04-23 21:06 47.62870 -52.66454 1430 ft 115 kts 268°
2026-04-23 21:06 47.62813 -52.67645 1279 ft 114 kts 268°
2026-04-23 21:07 47.62758 -52.68834 1128 ft 116 kts 268°
2026-04-23 21:07 47.62703 -52.70023 970 ft 117 kts 268°
2026-04-23 21:07 47.62641 -52.71237 790 ft 117 kts 267°
2026-04-23 21:07 47.62576 -52.72415 637 ft 112 kts 267°
2026-04-23 21:08 47.62521 -52.73571 501 ft 115 kts 268°
2026-04-23 21:08 47.62472 -52.74764 456 ft 111 kts 266°
2026-04-23 21:08 47.62428 -52.75755 475 ft 75 kts 267°
2026-04-23 21:08 47.62403 -52.76311 488 ft 34 kts 267°
2026-04-23 21:09 47.62396 -52.76472 488 ft 0 kts 265°
2026-04-23 21:09 47.62395 -52.76485 488 ft 7 kts 265°
2026-04-23 21:09 47.62382 -52.76620 486 ft 15 kts 242°
2026-04-23 21:09 47.62387 -52.76647 485 ft 7 kts 85°
2026-04-23 21:10 47.62388 -52.76548 487 ft 12 kts 85°
2026-04-23 21:10 47.62397 -52.76393 488 ft 17 kts 84°
2026-04-23 21:10 47.62411 -52.76199 487 ft 20 kts 84°
2026-04-23 21:10 47.62420 -52.75974 482 ft 23 kts 86°
2026-04-23 21:11 47.62433 -52.75709 473 ft 27 kts 86°
2026-04-23 21:11 47.62446 -52.75418 459 ft 29 kts 86°
2026-04-23 21:11 47.62467 -52.75103 449 ft 27 kts 89°
2026-04-23 21:11 47.62392 -52.74916 445 ft 22 kts 146°
2026-04-23 21:12 47.62277 -52.74798 443 ft 20 kts 146°
2026-04-23 21:12 47.62165 -52.74662 442 ft 21 kts 139°
2026-04-23 21:12 47.62049 -52.74508 440 ft 23 kts 136°
2026-04-23 21:12 47.61934 -52.74348 437 ft 20 kts 138°
2026-04-23 21:13 47.61826 -52.74209 433 ft 16 kts 139°
2026-04-23 21:13 47.61737 -52.74097 431 ft 14 kts 140°
2026-04-23 21:13 47.61667 -52.74099 431 ft 10 kts 226°
2026-04-23 21:13 47.61631 -52.74157 434 ft 5 kts 229°
2026-04-23 21:14 47.61611 -52.74194 436 ft 6 kts 230°
2026-04-23 21:14 47.61567 -52.74269 438 ft 10 kts 226°
2026-04-23 21:14 47.61512 -52.74335 442 ft 9 kts 197°
2026-04-23 21:14 47.61470 -52.74355 442 ft 5 kts 206°
2026-04-23 21:15 47.61437 -52.74378 443 ft 5 kts 203°
2026-04-23 21:15 47.61409 -52.74395 445 ft 2 kts 202°
2026-04-23 21:15 47.61405 -52.74397 445 ft 0 kts 202°